Regional Weather Roundup
Issued by NWS Northern Indiana

Home | Current Version | Previous Version | Graphics & Text | Print | Product List | Glossary On
Versions: 1 2 3 4 5 6 7 8 9 10 11 12 13 14 15 16 17 18 19 20 21 22 23 24 25 26 27 28 29 30 31 32 33 34 35 36 37 38 39 40 41 42 43 44 45 46 47 48 49 50
000
ASUS43 KIWX 272300
RWRIWX

KIWX WEATHER ROUNDUP
NATIONAL WEATHER SERVICE NORTHERN INDIANA
600 PM EST THU NOV 27 2014

NOTE: "FAIR" INDICATES FEW OR NO CLOUDS BELOW 12,000 FEET WITH NO
SIGNIFICANT WEATHER AND/OR OBSTRUCTIONS TO VISIBILITY.

* THESE STATIONS ARE NOT UNDER NWS QUALITY CONTROL. THEY ALSO MAY NOT
  REPORT WEATHER SUCH AS PRECIPITATION OR FOG.

INZ001>027-280000-
NORTHERN INDIANA

CITY           SKY/WX    TMP DP  RH WIND       PRES   REMARKS
GARY*          CLOUDY    27  14  59 NW9       30.39R WCI  17
SOUTH BEND     FLURRIES  27  20  75 NW16      30.33R WCI  15
GOSHEN         LGT SNOW  26  23  88 W14       30.30R FOG     WCI  14
ANGOLA*        CLOUDY    27  21  80 NW8       30.25R WCI  18
FORT WAYNE     FLURRIES  28  23  81 W17       30.31R WCI  16

$$
INZ028>050-280000-
CENTRAL INDIANA

CITY           SKY/WX    TMP DP  RH WIND       PRES   REMARKS
LAFAYETTE      LGT SNOW  25  20  81 NW10      30.39R WCI  15
KOKOMO*        MOCLDY    27  19  74 W15G22    30.35R WCI  15
MUNCIE*        FLURRIES  27  21  78 W16G25    30.33R WCI  15
INDIANAPOLIS   FLURRIES  27  19  72 NW13      30.37R WCI  16

$$
MIZ043>046-050>051-056>058-064>065-071>073-077>080-280000-
SOUTHWEST LOWER MICHIGAN

CITY           SKY/WX    TMP DP  RH WIND       PRES   REMARKS
BATTLE CREEK   CLOUDY    27  18  69 NW10      30.28R WCI  17
BENTON HARBOR  FLURRIES  26  19  74 NW10      30.33R WCI  16
COLDWATER*     CLOUDY    29  24  80 NW12G18   30.26R WCI  19
HILLSDALE*     FLURRIES  29  25  86 NW9       30.22R WCI  20
HOLLAND        LGT SNOW  24  19  81 N6        30.33S WCI  17
GRAND RAPIDS   CLOUDY    24  14  65 NW14      30.30R WCI  12
KALAMAZOO      FLURRIES  25  19  78 NW12      30.30R WCI  14
STURGIS*       CLOUDY    27  21  80 NW5       30.27R WCI  21
THREE RIVERS*  CLOUDY    27  22  82 NW8       30.30R WCI  18

$$
OHZ001>008-015>018-024>025-280000-
NORTHWEST OHIO

CITY           SKY/WX    TMP DP  RH WIND       PRES   REMARKS
DEFIANCE       MOCLDY    31  22  69 NW14G22   30.26R WCI  21
FINDLAY        CLOUDY    32  26  78 W18       30.23R WCI  20
TOLEDO EXPRESS MOCLDY    29  26  89 NW8       30.23R WCI  21
TOLEDO METCALF FLURRIES  31  27  85 W13       30.22R WCI  21
LIMA           CLOUDY    31  24  75 W18G25    30.26R WCI  19

$$
AND FOR LAKE MICHIGAN COASTAL AND OPEN LAKE BUOY OBSERVATIONS

STATION/POSITION TEMP    WIND        PRES    VSBY  WAVE
                 AIR SEA DIR/SP/G                  HT/PER
                 (F)     (DEG/KT/KT) (MB)    (MI)  (FT/S)
CALUMET HARBOR    24     300/  9/ 12 1027.5R
MICHIGAN CITY     26     290/ 19/ 23   N/A
SAINT JOSEPH      29     310/ 14/ 24 1027.4R
SOUTH LAKE BUOY   26 42  320/ 17/ 21 1028.2R

$$
&&


USA.gov is the U.S. government's official web portal to all federal, state and local government web resources and services.